Location: Br�ttisellen
(47.4227°N, 8.6287°E)
Time: 15:57:19
(UTC+00:00)

STARLINK-1246 - Pass Details

Date: 09 April 2020
Orbit: 549 x 550 km, 53.0° (Epoch: 03 June)

Event Time Altitude Azimuth Distance (km) Brightness Sun altitude
Rises 19:07:00 0° 295° (WNW) 2,724 9.5 -10.5°
Reaches altitude 10° 19:09:17 10° 300° (WNW) 1,828 7.9 -10.8°
Maximum altitude 19:13:21 54° 19° (NNE) 677 4.1 -11.4°
Enters shadow 19:16:31 16° 93° (E) 1,479 5.2 -11.9°
